Tracking 29487 objects as of 10-Sep-2024
HD Live streaming from Space Station
objects crossing your sky now

GLOBALSTAR M055

Track GLOBALSTAR M055 now!
10-day predictions
GLOBALSTAR M055 is classified as:


NORAD ID: 25910
Int'l Code: 1999-049D
Perigee: 1,554.0 km
Apogee: 1,563.9 km
Inclination: 52.0 °
Period: 117.1 minutes
Semi major axis: 7929 km
RCS: 2.0613 m2 (large)
Launch date: September 22, 1999
Source: Globalstar (GLOB)
Launch site: TYURATAM MISSILE AND SPACE COMPLEX (TTMTR)
Your satellite tracking list
Your tracking list is empty




NASA's NSSDC Master Catalog

Two Line Element Set (TLE):
1 25910U 99049D   24253.76829425 -.00000058  00000-0  31382-3 0  9991
2 25910  52.0009  82.1819 0006231 270.9113  89.1024 12.29408785133792
Source of the keplerian elements: AFSPC